This is the latest recevied weather packets stored in our database for station/object EA1AHA-13. If no packets are shown the sender has not sent any weather packets the latest 10 day(s).
| Time | Temp. | Humidity | Pressure | Rain* | Wind** | Luminosity | Snow |
|---|---|---|---|---|---|---|---|
| 1777467966 | 15.56° C | 85% | 1005.7 hPa | 0 mm | - | - | - |
| 1777467390 | 15.56° C | 85% | 1005.8 hPa | 0 mm | - | - | - |
| 1777466766 | 15° C | 86% | 1005.7 hPa | 0 mm | - | - | - |
| 1777466191 | 15° C | 86% | 1005.9 hPa | 0 mm | - | - | - |
| 1777465566 | 15° C | 85% | 1005.8 hPa | 0 mm | - | - | - |
| 1777464990 | 15° C | 84% | 1006 hPa | 0 mm | - | - | - |
| 1777464366 | 15° C | 84% | 1006 hPa | 0 mm | - | - | - |
| 1777463790 | 15° C | 84% | 1006 hPa | 0 mm | - | - | - |
| 1777463167 | 15.56° C | 81% | 1006 hPa | 0 mm | - | - | - |
| 1777462590 | 15.56° C | 79% | 1005.9 hPa | 0 mm | - | - | - |
| 1777462014 | 15.56° C | 79% | 1005.9 hPa | 0 mm | - | - | - |
| 1777461390 | 16.11° C | 79% | 1005.9 hPa | 0 mm | - | - | - |
| 1777460478 | 15.56° C | 79% | 1006 hPa | 0 mm | - | - | - |
| 1777459902 | 16.11° C | 79% | 1006.1 hPa | 0 mm | - | - | - |
| 1777459279 | 15.56° C | 81% | 1006.2 hPa | 0 mm | - | - | - |
| 1777458702 | 15.56° C | 80% | 1006 hPa | 0 mm | - | - | - |
| 1777458079 | 16.11° C | 79% | 1006 hPa | 0 mm | - | - | - |
| 1777457502 | 15.56° C | 80% | 1006.1 hPa | 0 mm | - | - | - |
| 1777456878 | 15.56° C | 81% | 1006.2 hPa | 0 mm | - | - | - |
| 1777456302 | 15.56° C | 80% | 1006.1 hPa | 0 mm | - | - | - |
| 1777455678 | 15° C | 81% | 1006.3 hPa | 0 mm | - | - | - |
| 1777455103 | 15° C | 81% | 1006 hPa | 0 mm | - | - | - |
| 1777454479 | 15° C | 83% | 1006.2 hPa | 0 mm | - | - | - |
| 1777453902 | 15° C | 83% | 1006.2 hPa | 0 mm | - | - | - |
| 1777453278 | 15° C | 83% | 1006.5 hPa | 0 mm | - | - | - |
* Rain latest hour (hover to see other rain measurements)
** Current wind speed in m/s (hover to see current wind gust speed)